Starlink 3926

operational
NORAD ID: 52543 Int'l Des: 2022-051 Owner: SPXS Country: US Constellation: starlink
LEOCIRCULAR

About Starlink 3926

Description loading...

Live Position

Loading 3D Globe...

Upcoming Passes

Altitude History

Altitude vs Time

uPlot chart will show altitude changes over time

Two-Line Element Set

1 52543U 22051L 26032.98829076 .00000111 00000-0 25099-4 0 9993
2 52543 53.2176 289.3923 0001419 82.4157 277.6996 15.08834835206057
Epoch: Feb 1, 2026 • Age: 31 hours

Current Status

Altitude 545.1 km
Velocity 7.59 km/s
Sub-Earth Point -17.98°S, 118.2°W
Launch Date May 13, 2022
Age 3.7 years
Type internet

Technical Details

Classification Payload
Mass 297.00 kg
Dry Mass 275.00 kg
Total Mass 297.00 kg
Length 0.20 m
Diameter 2.80 m
Span 9.00 m
Shape Box + pan
Manufacturer SPXS
Bus Type Starlink
Phase Status In Orbit
Owner/State SPXS/US

Large Constellations

Loading constellations...